Location: Mahannah Oil Field
(37.4664°N, 96.6003°W)
Time: 22:58:11
(UTC+00:00)

Courier 1B Rocket - Pass Details

Date: 27 January 2021
Orbit: 920 x 1202 km, 28.2° (Epoch: 08 March)

Event Time Altitude Azimuth Distance (km) Brightness Sun altitude
Exits shadow 09:55:38 10° 135° (SE) 2,645 7.5 -43.2°
Drops below altitude 10° 09:55:57 10° 133° (SE) 2,681 7.6 -43.1°
Sets 10:00:47 0° 102° (ESE) 3,696 8.8 -42.2°
